This is the latest recevied weather packets stored in our database for station/object AG7BI. If no packets are shown the sender has not sent any weather packets the latest 10 day(s).
| Time | Temp. | Humidity | Pressure | Rain* | Wind** | Luminosity | Snow |
|---|---|---|---|---|---|---|---|
| 1777845352 | 21.67° C | 40% | 1012.3 hPa | 0 mm | - | - | - |
| 1777845052 | 21.11° C | 40% | 1012.3 hPa | 0 mm | - | - | - |
| 1777844752 | 21.11° C | 41% | 1012.4 hPa | 0 mm | - | - | - |
| 1777844452 | 21.11° C | 39% | 1012.7 hPa | 0 mm | - | - | - |
| 1777844152 | 21.11° C | 43% | 1012.5 hPa | 0 mm | - | - | - |
| 1777843852 | 21.11° C | 40% | 1012.4 hPa | 0 mm | - | - | - |
| 1777843552 | 21.11° C | 39% | 1012.5 hPa | 0 mm | - | - | - |
| 1777843252 | 21.11° C | 42% | 1012.5 hPa | 0 mm | - | - | - |
| 1777842952 | 21.11° C | 42% | 1012.9 hPa | 0 mm | - | - | - |
| 1777842652 | 21.11° C | 43% | 1012.6 hPa | 0 mm | - | - | - |
| 1777842352 | 20.56° C | 41% | 1012.8 hPa | 0 mm | - | - | - |
| 1777842052 | 20.56° C | 42% | 1012.6 hPa | 0 mm | - | - | - |
| 1777841752 | 20.56° C | 47% | 1012.8 hPa | 0 mm | - | - | - |
| 1777841452 | 20.56° C | 45% | 1013 hPa | 0 mm | - | - | - |
| 1777841152 | 20.56° C | 46% | 1013.2 hPa | 0 mm | - | - | - |
| 1777840852 | 20° C | 49% | 1012.9 hPa | 0 mm | - | - | - |
| 1777840552 | 20° C | 52% | 1013.1 hPa | 0 mm | - | - | - |
| 1777840252 | 20° C | 50% | 1013.2 hPa | 0 mm | - | - | - |
| 1777839952 | 20° C | 51% | 1013.3 hPa | 0 mm | - | - | - |
| 1777839652 | 20° C | 51% | 1013.3 hPa | 0 mm | - | - | - |
| 1777839352 | 20° C | 52% | 1013.2 hPa | 0 mm | - | - | - |
| 1777839052 | 20.56° C | 50% | 1013.3 hPa | 0 mm | - | - | - |
| 1777838752 | 20.56° C | 49% | 1013.1 hPa | 0 mm | - | - | - |
| 1777838452 | 20° C | 48% | 1013.5 hPa | 0 mm | - | - | - |
| 1777838152 | 20° C | 47% | 1013.6 hPa | 0 mm | - | - | - |
* Rain latest hour (hover to see other rain measurements)
** Current wind speed in m/s (hover to see current wind gust speed)